Regional Weather Roundup
Issued by NWS

Home | Current Version | Previous Version | Text Only | Print | Product List | Glossary Off
Versions: 1 2 3 4 5 6 7 8 9 10 11 12 13 14 15 16 17 18 19 20 21 22 23 24 25 26 27

000
ASUS45 KPSR 221210
RWRAZ

ARIZONA HOURLY REGIONAL WEATHER ROUNDUP
NATIONAL WEATHER SERVICE PHOENIX AZ
500 AM MST SUN JAN 22 2017

NOTE: FAIR INDICATES FEW OR NO CLOUDS BELOW 12,000 FEET WITH NO
SIGNIFICANT WEATHER AND/OR OBSTRUCTIONS TO VISIBILITY.

AZZ001>003-036-221300-
NORTHWEST ARIZONA

CITY           SKY/WX    TMP DP  RH WIND       PRES   REMARKS
BULLHEAD CITY  CLOUDY    50  41  71 SE6       30.10S
KINGMAN        CLOUDY    40  25  55 SE7       30.10R
6HR MIN TEMP:  35; 6HR MAX TEMP:  40;

$$

AZZ004>008-015-016-018-221300-
NORTH CENTRAL ARIZONA

CITY           SKY/WX    TMP DP  RH WIND       PRES   REMARKS
GRAND CANYON   MOCLDY     3   0  87 CALM      30.09R
6HR MIN TEMP:   1; 6HR MAX TEMP:  11;

WILLIAMS       CLEAR     16  14  93 SE10      30.08F WCI   3
PRESCOTT       CLOUDY    30  27  88 S5        30.12R WCI  25
6HR MIN TEMP:  27; 6HR MAX TEMP:  32;

FLAGSTAFF      CLOUDY    24  22  91 W5        30.11R WCI  18
6HR MIN TEMP:  15; 6HR MAX TEMP:  24;

PAYSON         MOCLDY    30  28  93 NE3       30.17R
PAGE           PTCLDY    34  23  64 SW6       30.07R WCI  29
6HR MIN TEMP:  31; 6HR MAX TEMP:  37;

$$

AZZ009>014-017-221300-
NORTHEAST ARIZONA

CITY           SKY/WX    TMP DP  RH WIND       PRES   REMARKS
WINSLOW        CLOUDY    25  24  96 CALM      30.13R
6HR MIN TEMP:  25; 6HR MAX TEMP:  32;

SAINT JOHNS    PTCLDY    24  18  77 SW7       30.09R WCI  16
6HR MIN TEMP:  23; 6HR MAX TEMP:  30;

SHOW LOW       PTCLDY    21  19  93 S14       30.12R WCI   8
$$

AZZ023-221300-
GREATER PHOENIX AREA

CITY           SKY/WX    TMP DP  RH WIND       PRES   REMARKS
PHOENIX        CLOUDY    46  39  76 E8        30.14R
6HR MIN TEMP:  44; 6HR MAX TEMP:  49;

BUCKEYE        CLOUDY    45  45 100 E6        30.14R
LUKE AFB       CLOUDY    43  42  97 N3        30.14R
6HR MIN TEMP:  41; 6HR MAX TEMP:  45;

DEER VALLEY    CLOUDY    43  38  82 CALM      30.14S
6HR MIN TEMP:  41; 6HR MAX TEMP:  46;

SCOTTSDALE     CLOUDY    46  37  71 CALM      30.16R
6HR MIN TEMP:  41; 6HR MAX TEMP:  46;

MESA-GATEWAY   MOCLDY    43  37  81 SE6       30.16R
$$

AZZ027-028-221300-
SOUTHWEST MARICOPA COUNTY AND PINAL COUNTY

CITY           SKY/WX    TMP DP  RH WIND       PRES   REMARKS
CASA GRANDE    CLOUDY    42  37  82 NE5       30.17R
6HR MIN TEMP:  39; 6HR MAX TEMP:  44;

GILA BEND      FAIR      47  40  77 CALM      30.13R
6HR MIN TEMP:  45; 6HR MAX TEMP:  47;

$$

AZZ503-504-507>509-221300-
SOUTHEAST ARIZONA

CITY           SKY/WX    TMP DP  RH WIND       PRES   REMARKS
TUCSON         MOCLDY    40  33  76 SE9       30.18R WCI  34
6HR MIN TEMP:  38; 6HR MAX TEMP:  43;

DAVIS-MONTHAN  CLOUDY    38  34  86 SE8       30.17R WCI  32
6HR MIN TEMP:  36; 6HR MAX TEMP:  40;

NOGALES        PTCLDY    31  28  89 E6        30.16R WCI  25
6HR MIN TEMP:  30; 6HR MAX TEMP:  35;

SIERRA VISTA   MOCLDY    30  26  83 W5        30.17R WCI  26
6HR MIN TEMP:  29; 6HR MAX TEMP:  34;

DOUGLAS        CLEAR     29  25  85 CALM      30.17R
6HR MIN TEMP:  27; 6HR MAX TEMP:  35;

SAFFORD        CLEAR     32  30  92 CALM      30.18R
6HR MIN TEMP:  32; 6HR MAX TEMP:  42;

$$

AZZ020-021-025-026-031-221300-
SOUTHWEST ARIZONA

CITY           SKY/WX    TMP DP  RH WIND       PRES   REMARKS
YUMA           CLOUDY    50  42  74 N6        30.10F
6HR MIN TEMP:  47; 6HR MAX TEMP:  51;

$$

CAZ031-033-041-043-047-048-061-221300-
SOUTHERN CALIFORNIA

CITY           SKY/WX    TMP DP  RH WIND       PRES   REMARKS
DOWNTOWN L.A.  LGT RAIN  53  49  86 E5        30.10S
6HR MIN TEMP:  53; 6HR MAX TEMP:  56; 6HR PCP:  0.04;

L.A. AIRPORT   LGT RAIN  52  49  89 E10       30.09F
6HR MIN TEMP:  52; 6HR MAX TEMP:  56; 6HR PCP:  0.03;

SAN DIEGO      MOCLDY    54  43  66 CALM      30.12S
6HR MIN TEMP:  53; 6HR MAX TEMP:  55;

BURBANK        LGT RAIN  50  47  89 SE10      30.08F
6HR MIN TEMP:  50; 6HR MAX TEMP:  52; 6HR PCP:  0.12;

ONTARIO        CLOUDY    47  45  93 NW3       30.13R
6HR MIN TEMP:  47; 6HR MAX TEMP:  50; 6HR PCP:  0.02;

RIVERSIDE      CLOUDY    49  46  90 CALM      30.13R
6HR MIN TEMP:  48; 6HR MAX TEMP:  50; 6HR PCP:  0.02;

PALM SPRINGS   MOCLDY    51  42  71 SW3       30.09S
6HR MIN TEMP:  49; 6HR MAX TEMP:  56;

EL CENTRO NAS  CLOUDY    49  43  80 CALM      30.11R
6HR MIN TEMP:  46; 6HR MAX TEMP:  51;

IMPERIAL       CLOUDY    50  42  74 SE5       30.08F
6HR MIN TEMP:  47; 6HR MAX TEMP:  52;

BLYTHE         CLOUDY    51  43  74 E5        30.10R
6HR MIN TEMP:  49; 6HR MAX TEMP:  53;

NEEDLES        CLOUDY    51  42  71 CALM      30.09R
6HR MIN TEMP:  50; 6HR MAX TEMP:  54;

$$

NVZ020-UTZ003-221300-
SOUTHERN NEVADA-UTAH

CITY           SKY/WX    TMP DP  RH WIND       PRES   REMARKS
LAS VEGAS      LGT RAIN  49  34  56 S9        30.00F
6HR MIN TEMP:  47; 6HR MAX TEMP:  49; 6HR PCP: TRACE;

SALT LAKE CITY PTCLDY    28  22  78 SE12      29.96F WCI  18
6HR MIN TEMP:  26; 6HR MAX TEMP:  33;

$$

NMZ009-TXZ055-221300-
NEW MEXICO-WEST TEXAS

CITY           SKY/WX    TMP DP  RH WIND       PRES   REMARKS
ALBUQUERQUE    CLOUDY    34  21  59 N7        30.03R WCI  28
6HR MIN TEMP:  34; 6HR MAX TEMP:  39;

EL PASO        CLEAR     39  25  57 W31G38    30.03F WCI  27
6HR MIN TEMP:  38; 6HR MAX TEMP:  43;

$$


........................KEY........................
SKY/WX - SKY CONDITION/WEATHER
TMP    - TEMPERATURE IN FAHRENHEIT
DP     - DEW POINT IN FAHRENHEIT
RH     - RELATIVE HUMIDITY IN PERCENT
WIND   - DIRECTION AND SPEED IN MILES PER HOUR (MPH)
VRB    - VARIABLE WIND DIRECTION
PRES   - MEAN SEA LEVEL PRESSURE IN INCHES OF MERCURY
         F - FALLING PRESSURE   R - RISING PRESSURE
         S - STEADY PRESSURE
VSB    - VISIBILITY IN MILES
HX     - HEAT INDEX IN FAHRENHEIT
WCI    - WIND CHILL INDEX IN FAHRENHEIT
TC     - TEMPERATURE IN CELSIUS WHICH IS ALSO KNOWN AS
         TEMPERATURE IN CENTIGRADE
AFB    - AIR FORCE BASE
         LUKE AFB IS LUKE AIR FORCE BASE
         DAVIS-MONTHAN IS DAVIS-MONTHAN AIR FORCE BASE
NAS    - NAVAL AIR STATION
         EL CENTRO NAS IS EL CENTRO NAVAL AIR STATION
N/A    - NOT AVAILABLE





USA.gov is the U.S. government's official web portal to all federal, state and local government web resources and services.